Time,TemperatureF,DewpointF,PressureIn,WindDirection,WindDirectionDegrees,WindSpeedMPH,WindSpeedGustMPH,Humidity,HourlyPrecipIn,Conditions,Clouds,dailyrainin,SoftwareType,DateUTC
2013-12-31 00:02:00,26.8,17.2,23.77,NNW,337,5.0,6.7,67,0.00,,,-99.99,FreeWX 2.04,2013-12-31 07:02:00,
2013-12-31 00:12:00,26.8,16.9,23.77,North,349,3.0,7.4,66,0.00,,,-99.99,FreeWX 2.04,2013-12-31 07:12:00,
2013-12-31 00:22:00,27.0,16.5,23.77,North,-999,0.0,0.0,64,0.00,,,-99.99,FreeWX 2.04,2013-12-31 07:22:00,
2013-12-31 00:32:00,27.3,16.0,23.77,NE,41,1.0,6.9,62,0.00,,,-99.99,FreeWX 2.04,2013-12-31 07:32:00,
2013-12-31 00:42:00,27.5,15.4,23.77,ESE,117,1.0,6.3,60,0.00,,,-99.99,FreeWX 2.04,2013-12-31 07:42:00,
2013-12-31 00:52:00,28.0,14.7,23.74,ESE,105,2.0,6.3,57,0.00,,,-99.99,FreeWX 2.04,2013-12-31 07:52:00,
2013-12-31 01:02:00,28.9,13.1,23.74,East,97,2.0,6.7,51,0.00,,,-99.99,FreeWX 2.04,2013-12-31 08:02:00,
2013-12-31 01:12:00,30.0,10.8,23.77,North,-999,0.0,4.9,44,0.00,,,-99.99,FreeWX 2.04,2013-12-31 08:12:00,
2013-12-31 01:22:00,29.7,10.4,23.77,NW,312,1.0,6.7,44,0.00,,,-99.99,FreeWX 2.04,2013-12-31 08:22:00,
2013-12-31 01:32:00,29.8,10.6,23.77,North,-999,0.0,4.5,44,0.00,,,-99.99,FreeWX 2.04,2013-12-31 08:32:00,
2013-12-31 01:42:00,29.1,10.9,23.77,NW,321,2.0,5.8,46,0.00,,,-99.99,FreeWX 2.04,2013-12-31 08:42:00,
2013-12-31 01:52:00,29.5,10.2,23.77,North,-999,0.0,4.0,44,0.00,,,-99.99,FreeWX 2.04,2013-12-31 08:52:00,
2013-12-31 02:02:00,30.0,9.7,23.77,ENE,67,2.0,7.8,42,0.00,,,-99.99,FreeWX 2.04,2013-12-31 09:02:00,
2013-12-31 02:12:00,30.7,8.8,23.77,West,266,3.0,6.9,39,0.00,,,-99.99,FreeWX 2.04,2013-12-31 09:12:00,
2013-12-31 02:22:00,30.7,7.5,23.77,West,280,1.0,5.8,37,0.00,,,-99.99,FreeWX 2.04,2013-12-31 09:22:00,
2013-12-31 02:32:00,30.4,8.4,23.77,SW,235,2.0,8.3,39,0.00,,,-99.99,FreeWX 2.04,2013-12-31 09:32:00,
2013-12-31 02:42:00,30.0,9.1,23.80,North,-999,0.0,4.0,41,0.00,,,-99.99,FreeWX 2.04,2013-12-31 09:42:00,
2013-12-31 02:52:00,30.0,9.1,23.80,North,-999,0.0,5.8,41,0.00,,,-99.99,FreeWX 2.04,2013-12-31 09:52:00,
2013-12-31 03:02:00,29.8,9.0,23.80,North,-999,0.0,0.0,41,0.00,,,-99.99,FreeWX 2.04,2013-12-31 10:02:00,
2013-12-31 03:12:00,30.4,8.4,23.77,North,-999,0.0,0.0,39,0.00,,,-99.99,FreeWX 2.04,2013-12-31 10:12:00,
2013-12-31 03:22:00,30.2,8.2,23.77,WSW,254,1.0,6.9,39,0.00,,,-99.99,FreeWX 2.04,2013-12-31 10:22:00,
2013-12-31 03:32:00,30.0,8.6,23.77,SW,219,1.0,6.7,40,0.00,,,-99.99,FreeWX 2.04,2013-12-31 10:32:00,
2013-12-31 03:42:00,30.0,8.1,23.77,South,181,1.0,6.9,39,0.00,,,-99.99,FreeWX 2.04,2013-12-31 10:42:00,
2013-12-31 03:52:00,30.2,7.7,23.77,South,169,1.0,7.4,38,0.00,,,-99.99,FreeWX 2.04,2013-12-31 10:52:00,
2013-12-31 04:02:00,30.0,8.1,23.77,SW,234,1.0,5.8,39,0.00,,,-99.99,FreeWX 2.04,2013-12-31 11:02:00,
2013-12-31 04:12:00,29.8,7.3,23.77,SSE,160,2.0,7.8,38,0.00,,,-99.99,FreeWX 2.04,2013-12-31 11:12:00,
2013-12-31 04:22:00,30.0,7.5,23.77,NE,39,3.0,6.7,38,0.00,,,-99.99,FreeWX 2.04,2013-12-31 11:22:00,
2013-12-31 04:32:00,30.2,6.4,23.77,WNW,285,2.0,8.7,36,0.00,,,-99.99,FreeWX 2.04,2013-12-31 11:32:00,
2013-12-31 04:42:00,30.0,7.0,23.77,WNW,296,1.0,5.8,37,0.00,,,-99.99,FreeWX 2.04,2013-12-31 11:42:00,
2013-12-31 04:52:00,30.0,7.0,23.77,North,358,1.0,5.8,37,0.00,,,-99.99,FreeWX 2.04,2013-12-31 11:52:00,
2013-12-31 05:02:00,29.8,6.8,23.77,NE,41,1.0,6.9,37,0.00,,,-99.99,FreeWX 2.04,2013-12-31 12:02:00,
2013-12-31 05:12:00,29.8,6.8,23.77,North,-999,0.0,4.9,37,0.00,,,-99.99,FreeWX 2.04,2013-12-31 12:12:00,
2013-12-31 05:22:00,29.7,6.6,23.77,SSW,194,1.0,6.9,37,0.00,,,-99.99,FreeWX 2.04,2013-12-31 12:22:00,
2013-12-31 05:32:00,29.3,6.3,23.77,North,-999,0.0,5.4,37,0.00,,,-99.99,FreeWX 2.04,2013-12-31 12:32:00,
2013-12-31 05:42:00,29.7,6.1,23.77,North,-999,0.0,4.9,36,0.00,,,-99.99,FreeWX 2.04,2013-12-31 12:42:00,
2013-12-31 05:52:00,29.3,6.3,23.77,NE,50,2.0,5.8,37,0.00,,,-99.99,FreeWX 2.04,2013-12-31 12:52:00,
2013-12-31 06:02:00,29.5,6.4,23.77,NE,39,4.0,9.2,37,0.00,,,-99.99,FreeWX 2.04,2013-12-31 13:02:00,
2013-12-31 06:12:00,29.7,6.6,23.77,North,-999,0.0,4.9,37,0.00,,,-99.99,FreeWX 2.04,2013-12-31 13:12:00,
2013-12-31 06:22:00,28.4,8.2,23.77,NE,44,1.0,4.5,42,0.00,,,-99.99,FreeWX 2.04,2013-12-31 13:22:00,
2013-12-31 06:32:00,28.9,8.2,23.77,North,-999,0.0,3.1,41,0.00,,,-99.99,FreeWX 2.04,2013-12-31 13:32:00,
2013-12-31 06:42:00,28.9,8.2,23.77,North,-999,0.0,0.0,41,0.00,,,-99.99,FreeWX 2.04,2013-12-31 13:42:00,
2013-12-31 06:52:00,29.3,8.1,23.77,WNW,298,1.0,5.8,40,0.00,,,-99.99,FreeWX 2.04,2013-12-31 13:52:00,
2013-12-31 07:02:00,29.7,9.0,23.77,NW,310,1.0,11.6,41,0.00,,,-99.99,FreeWX 2.04,2013-12-31 14:02:00,
2013-12-31 07:12:00,29.7,9.0,23.77,West,263,1.0,6.3,41,0.00,,,-99.99,FreeWX 2.04,2013-12-31 14:12:00,
2013-12-31 07:22:00,29.7,9.0,23.77,North,-999,0.0,5.8,41,0.00,,,-99.99,FreeWX 2.04,2013-12-31 14:22:00,
2013-12-31 07:32:00,29.7,9.5,23.77,North,-999,0.0,4.5,42,0.00,,,-99.99,FreeWX 2.04,2013-12-31 14:32:00,
2013-12-31 07:42:00,29.5,9.3,23.77,North,-999,0.0,0.0,42,0.00,,,-99.99,FreeWX 2.04,2013-12-31 14:42:00,
2013-12-31 07:52:00,29.7,9.5,23.77,North,-999,0.0,0.0,42,0.00,,,-99.99,FreeWX 2.04,2013-12-31 14:52:00,
2013-12-31 08:02:00,29.7,9.5,23.77,North,-999,0.0,5.4,42,0.00,,,-99.99,FreeWX 2.04,2013-12-31 15:02:00,
2013-12-31 08:12:00,29.7,9.5,23.77,North,-999,0.0,4.0,42,0.00,,,-99.99,FreeWX 2.04,2013-12-31 15:12:00,
2013-12-31 08:22:00,29.5,9.9,23.77,NNW,338,2.0,5.8,43,0.00,,,-99.99,FreeWX 2.04,2013-12-31 15:22:00,
2013-12-31 08:32:00,29.3,10.0,23.77,North,-999,0.0,3.1,44,0.00,,,-99.99,FreeWX 2.04,2013-12-31 15:32:00,
2013-12-31 08:42:00,29.1,10.4,23.77,North,-999,0.0,0.0,45,0.00,,,-99.99,FreeWX 2.04,2013-12-31 15:42:00,
2013-12-31 08:52:00,28.8,9.7,23.80,North,-999,0.0,0.0,44,0.00,,,-99.99,FreeWX 2.04,2013-12-31 15:52:00,
2013-12-31 09:02:00,28.8,10.2,23.80,North,-999,0.0,0.0,45,0.00,,,-99.99,FreeWX 2.04,2013-12-31 16:02:00,
2013-12-31 09:12:00,29.3,11.1,23.80,East,90,1.0,6.7,46,0.00,,,-99.99,FreeWX 2.04,2013-12-31 16:12:00,
2013-12-31 09:22:00,30.4,12.6,23.77,SSW,204,1.0,5.4,47,0.00,,,-99.99,FreeWX 2.04,2013-12-31 16:22:00,
2013-12-31 09:32:00,30.6,11.8,23.77,South,188,1.0,6.7,45,0.00,,,-99.99,FreeWX 2.04,2013-12-31 16:32:00,
2013-12-31 09:42:00,31.3,12.4,23.77,WSW,237,2.0,7.4,45,0.00,,,-99.99,FreeWX 2.04,2013-12-31 16:42:00,
2013-12-31 09:52:00,31.5,12.6,23.77,South,185,2.0,8.7,45,0.00,,,-99.99,FreeWX 2.04,2013-12-31 16:52:00,
2013-12-31 10:02:00,31.6,11.7,23.77,South,171,2.0,8.7,43,0.00,,,-99.99,FreeWX 2.04,2013-12-31 17:02:00,
2013-12-31 10:12:00,32.4,11.8,23.77,SSE,168,1.0,8.3,42,0.00,,,-99.99,FreeWX 2.04,2013-12-31 17:12:00,
2013-12-31 10:22:00,33.1,12.0,23.77,North,-999,0.0,4.9,41,0.00,,,-99.99,FreeWX 2.04,2013-12-31 17:22:00,
2013-12-31 10:32:00,33.4,11.7,23.77,North,-999,0.0,5.4,40,0.00,,,-99.99,FreeWX 2.04,2013-12-31 17:32:00,
2013-12-31 10:42:00,33.8,12.0,23.77,WSW,240,1.0,6.7,40,0.00,,,-99.99,FreeWX 2.04,2013-12-31 17:42:00,
2013-12-31 10:52:00,33.6,11.8,23.77,SW,222,4.0,10.5,40,0.00,,,-99.99,FreeWX 2.04,2013-12-31 17:52:00,
2013-12-31 11:02:00,33.6,11.8,23.77,SSE,161,2.0,6.9,40,0.00,,,-99.99,FreeWX 2.04,2013-12-31 18:02:00,
2013-12-31 11:12:00,33.6,11.8,23.77,SSW,199,4.0,9.6,40,0.00,,,-99.99,FreeWX 2.04,2013-12-31 18:12:00,
2013-12-31 11:22:00,33.8,12.0,23.77,SSW,192,2.0,9.6,40,0.00,,,-99.99,FreeWX 2.04,2013-12-31 18:22:00,
2013-12-31 11:32:00,33.4,11.7,23.77,SW,233,4.0,9.6,40,0.00,,,-99.99,FreeWX 2.04,2013-12-31 18:32:00,
2013-12-31 11:42:00,34.3,11.5,23.77,SW,217,1.0,6.9,38,0.00,,,-99.99,FreeWX 2.04,2013-12-31 18:42:00,
2013-12-31 11:52:00,34.3,9.5,23.74,SW,228,3.0,7.8,35,0.00,,,-99.99,FreeWX 2.04,2013-12-31 18:52:00,
2013-12-31 12:02:00,34.3,9.0,23.74,WSW,250,2.0,9.6,34,0.00,,,-99.99,FreeWX 2.04,2013-12-31 19:02:00,
2013-12-31 12:12:00,33.8,9.1,23.74,WNW,296,5.0,11.6,35,0.00,,,-99.99,FreeWX 2.04,2013-12-31 19:12:00,
2013-12-31 12:22:00,33.8,9.1,23.74,WNW,285,5.0,10.1,35,0.00,,,-99.99,FreeWX 2.04,2013-12-31 19:22:00,
2013-12-31 12:32:00,33.8,10.4,23.74,WNW,292,6.0,13.9,37,0.00,,,-99.99,FreeWX 2.04,2013-12-31 19:32:00,
2013-12-31 12:42:00,34.0,9.9,23.74,WNW,285,6.0,10.5,36,0.00,,,-99.99,FreeWX 2.04,2013-12-31 19:42:00,
2013-12-31 12:52:00,34.3,9.5,23.74,WNW,282,4.0,10.1,35,0.00,,,-99.99,FreeWX 2.04,2013-12-31 19:52:00,
2013-12-31 13:02:00,34.2,10.0,23.74,WNW,296,5.0,9.6,36,0.00,,,-99.99,FreeWX 2.04,2013-12-31 20:02:00,
2013-12-31 13:12:00,34.7,8.6,23.74,WNW,286,3.0,8.7,33,0.00,,,-99.99,FreeWX 2.04,2013-12-31 20:12:00,
2013-12-31 13:22:00,35.1,8.2,23.71,South,171,2.0,8.7,32,0.00,,,-99.99,FreeWX 2.04,2013-12-31 20:22:00,
2013-12-31 13:32:00,34.9,8.1,23.71,SW,221,3.0,11.6,32,0.00,,,-99.99,FreeWX 2.04,2013-12-31 20:32:00,
2013-12-31 13:42:00,34.5,8.4,23.71,WSW,246,4.0,10.5,33,0.00,,,-99.99,FreeWX 2.04,2013-12-31 20:42:00,
2013-12-31 13:52:00,34.0,7.9,23.71,WNW,292,6.0,11.2,33,0.00,,,-99.99,FreeWX 2.04,2013-12-31 20:52:00,
2013-12-31 14:02:00,34.3,7.5,23.71,WNW,285,7.0,13.0,32,0.00,,,-99.99,FreeWX 2.04,2013-12-31 21:02:00,
2013-12-31 14:12:00,34.3,9.0,23.71,West,279,6.0,10.5,34,0.00,,,-99.99,FreeWX 2.04,2013-12-31 21:12:00,
2013-12-31 14:22:00,34.3,9.0,23.71,NW,325,5.0,9.6,34,0.00,,,-99.99,FreeWX 2.04,2013-12-31 21:22:00,
2013-12-31 14:32:00,34.2,9.3,23.71,NNW,346,2.0,5.8,35,0.00,,,-99.99,FreeWX 2.04,2013-12-31 21:32:00,
2013-12-31 14:42:00,34.9,8.1,23.71,NW,307,2.0,6.9,32,0.00,,,-99.99,FreeWX 2.04,2013-12-31 21:42:00,
2013-12-31 14:52:00,34.3,7.5,23.71,NNE,14,1.0,7.4,32,0.00,,,-99.99,FreeWX 2.04,2013-12-31 21:52:00,
2013-12-31 15:02:00,34.3,8.2,23.71,West,262,3.0,7.4,33,0.00,,,-99.99,FreeWX 2.04,2013-12-31 22:02:00,
2013-12-31 15:12:00,34.2,7.3,23.71,West,269,6.0,11.6,32,0.00,,,-99.99,FreeWX 2.04,2013-12-31 22:12:00,
2013-12-31 15:22:00,34.0,7.9,23.71,WNW,287,2.0,8.3,33,0.00,,,-99.99,FreeWX 2.04,2013-12-31 22:22:00,
2013-12-31 15:32:00,33.4,7.5,23.71,WSW,248,4.0,10.1,33,0.00,,,-99.99,FreeWX 2.04,2013-12-31 22:32:00,
2013-12-31 15:42:00,33.3,7.9,23.71,West,273,5.0,8.7,34,0.00,,,-99.99,FreeWX 2.04,2013-12-31 22:42:00,
2013-12-31 15:52:00,33.1,7.9,23.71,West,273,4.0,10.5,34,0.00,,,-99.99,FreeWX 2.04,2013-12-31 22:52:00,
2013-12-31 16:02:00,32.2,10.6,23.71,WSW,254,3.0,12.1,40,0.00,,,-99.99,FreeWX 2.04,2013-12-31 23:02:00,
2013-12-31 16:12:00,32.2,10.6,23.71,North,-999,0.0,5.8,40,0.00,,,-99.99,FreeWX 2.04,2013-12-31 23:12:00,
2013-12-31 16:22:00,32.2,10.0,23.71,SSW,211,2.0,6.7,39,0.00,,,-99.99,FreeWX 2.04,2013-12-31 23:22:00,
2013-12-31 16:32:00,32.4,9.7,23.71,SSW,203,4.0,8.7,38,0.00,,,-99.99,FreeWX 2.04,2013-12-31 23:32:00,
2013-12-31 16:42:00,32.5,9.9,23.68,SW,214,5.0,13.9,38,0.00,,,-99.99,FreeWX 2.04,2013-12-31 23:42:00,
2013-12-31 16:52:00,32.5,9.1,23.68,SSW,207,5.0,13.4,37,0.00,,,-99.99,FreeWX 2.04,2013-12-31 23:52:00,
2013-12-31 17:02:00,32.5,9.1,23.68,SSW,206,3.0,9.2,37,0.00,,,-99.99,FreeWX 2.04,2014-01-01 00:02:00,
2013-12-31 17:12:00,32.4,10.2,23.68,SSW,202,4.0,10.5,39,0.00,,,-99.99,FreeWX 2.04,2014-01-01 00:12:00,
2013-12-31 17:22:00,32.5,9.9,23.65,SSW,198,5.0,11.6,38,0.00,,,-99.99,FreeWX 2.04,2014-01-01 00:22:00,
2013-12-31 17:32:00,32.7,9.3,23.65,SSW,206,5.0,18.1,37,0.00,,,-99.99,FreeWX 2.04,2014-01-01 00:32:00,
2013-12-31 17:42:00,32.7,9.3,23.68,SW,216,4.0,11.0,37,0.00,,,-99.99,FreeWX 2.04,2014-01-01 00:42:00,
2013-12-31 17:52:00,32.5,10.9,23.68,SW,224,3.0,9.2,40,0.00,,,-99.99,FreeWX 2.04,2014-01-01 00:52:00,
2013-12-31 18:02:00,32.0,11.5,23.68,SSW,210,3.0,8.7,42,0.00,,,-99.99,FreeWX 2.04,2014-01-01 01:02:00,
2013-12-31 18:12:00,31.5,12.6,23.68,WSW,242,3.0,11.2,45,0.00,,,-99.99,FreeWX 2.04,2014-01-01 01:12:00,
2013-12-31 18:22:00,30.7,14.7,23.68,South,188,2.0,6.9,51,0.00,,,-99.99,FreeWX 2.04,2014-01-01 01:22:00,
2013-12-31 18:32:00,30.6,15.1,23.68,South,181,2.0,6.7,52,0.00,,,-99.99,FreeWX 2.04,2014-01-01 01:32:00,
2013-12-31 18:42:00,30.2,15.1,23.65,NW,304,1.0,5.4,53,0.00,,,-99.99,FreeWX 2.04,2014-01-01 01:42:00,
2013-12-31 18:52:00,29.8,16.9,23.65,NE,34,2.0,6.3,58,0.00,,,-99.99,FreeWX 2.04,2014-01-01 01:52:00,
2013-12-31 19:02:00,29.7,18.3,23.65,North,-999,0.0,2.7,62,0.00,,,-99.99,FreeWX 2.04,2014-01-01 02:02:00,
2013-12-31 19:12:00,29.5,18.5,23.68,NNW,332,2.0,6.3,63,0.00,,,-99.99,FreeWX 2.04,2014-01-01 02:12:00,
2013-12-31 19:22:00,29.3,20.1,23.68,NNW,330,7.0,9.6,68,0.00,,,-99.99,FreeWX 2.04,2014-01-01 02:22:00,
2013-12-31 19:32:00,29.3,21.7,23.68,NNW,334,8.0,12.5,73,0.00,,,-99.99,FreeWX 2.04,2014-01-01 02:32:00,
2013-12-31 19:42:00,24.3,16.5,23.71,NNW,332,14.0,21.0,72,0.00,,,-99.99,FreeWX 2.04,2014-01-01 02:42:00,
2013-12-31 19:52:00,24.4,17.1,23.71,NNW,345,13.0,19.5,73,0.00,,,-99.99,FreeWX 2.04,2014-01-01 02:52:00,
2013-12-31 20:02:00,24.6,17.6,23.71,NW,314,4.0,11.0,74,0.00,,,-99.99,FreeWX 2.04,2014-01-01 03:02:00,
2013-12-31 20:12:00,24.4,17.4,23.71,North,-999,0.0,5.4,74,0.00,,,-99.99,FreeWX 2.04,2014-01-01 03:12:00,
2013-12-31 20:22:00,24.4,17.4,23.71,North,-999,0.0,0.0,74,0.00,,,-99.99,FreeWX 2.04,2014-01-01 03:22:00,
2013-12-31 20:32:00,24.6,17.6,23.71,North,-999,0.0,4.0,74,0.00,,,-99.99,FreeWX 2.04,2014-01-01 03:32:00,
2013-12-31 20:42:00,24.8,18.0,23.71,North,-999,0.0,5.4,75,0.00,,,-99.99,FreeWX 2.04,2014-01-01 03:42:00,
2013-12-31 20:52:00,25.3,18.5,23.71,North,-999,0.0,4.0,75,0.00,,,-99.99,FreeWX 2.04,2014-01-01 03:52:00,
2013-12-31 21:02:00,26.2,19.8,23.71,North,-999,0.0,4.5,76,0.00,,,-99.99,FreeWX 2.04,2014-01-01 04:02:00,
2013-12-31 21:12:00,26.6,20.3,23.71,North,-999,0.0,3.6,77,0.00,,,-99.99,FreeWX 2.04,2014-01-01 04:12:00,
2013-12-31 21:22:00,26.6,20.3,23.71,North,-999,0.0,4.5,77,0.00,,,-99.99,FreeWX 2.04,2014-01-01 04:22:00,
2013-12-31 21:32:00,26.1,19.6,23.71,North,-999,0.0,2.7,76,0.00,,,-99.99,FreeWX 2.04,2014-01-01 04:32:00,
2013-12-31 21:42:00,25.7,19.2,23.71,North,-999,0.0,0.0,76,0.00,,,-99.99,FreeWX 2.04,2014-01-01 04:42:00,
2013-12-31 21:52:00,25.5,19.0,23.71,WNW,282,1.0,4.9,76,0.00,,,-99.99,FreeWX 2.04,2014-01-01 04:52:00,
2013-12-31 22:02:00,25.5,19.0,23.71,WNW,303,3.0,6.3,76,0.00,,,-99.99,FreeWX 2.04,2014-01-01 05:02:00,
2013-12-31 22:12:00,25.3,18.9,23.71,NW,318,1.0,4.5,76,0.00,,,-99.99,FreeWX 2.04,2014-01-01 05:12:00,
2013-12-31 22:22:00,25.0,18.1,23.71,North,-999,0.0,0.0,75,0.00,,,-99.99,FreeWX 2.04,2014-01-01 05:22:00,
2013-12-31 22:32:00,24.4,17.4,23.71,North,-999,0.0,0.0,74,0.00,,,-99.99,FreeWX 2.04,2014-01-01 05:32:00,
2013-12-31 22:42:00,24.6,17.6,23.71,ESE,106,1.0,4.5,74,0.00,,,-99.99,FreeWX 2.04,2014-01-01 05:42:00,
2013-12-31 22:52:00,24.6,17.6,23.71,North,-999,0.0,3.6,74,0.00,,,-99.99,FreeWX 2.04,2014-01-01 05:52:00,
2013-12-31 23:02:00,24.4,17.4,23.71,North,-999,0.0,3.1,74,0.00,,,-99.99,FreeWX 2.04,2014-01-01 06:02:00,
2013-12-31 23:12:00,24.8,17.8,23.74,ESE,112,2.0,5.4,74,0.00,,,-99.99,FreeWX 2.04,2014-01-01 06:12:00,
2013-12-31 23:22:00,25.5,18.7,23.74,SE,130,2.0,4.9,75,0.00,,,-99.99,FreeWX 2.04,2014-01-01 06:22:00,
2013-12-31 23:32:00,25.5,19.0,23.74,ESE,109,2.0,4.9,76,0.00,,,-99.99,FreeWX 2.04,2014-01-01 06:32:00,
2013-12-31 23:42:00,25.7,19.2,23.74,East,96,1.0,4.9,76,0.00,,,-99.99,FreeWX 2.04,2014-01-01 06:42:00,
2013-12-31 23:52:00,25.3,18.9,23.74,ESE,106,1.0,4.5,76,0.00,,,-99.99,FreeWX 2.04,2014-01-01 06:52:00,